Regional Weather Roundup
Issued by NWS Cleveland, OH

Home | Current Version | Previous Version | Graphics & Text | Print | Product List | Glossary On
Versions: 1 2 3 4 5 6 7 8 9 10 11 12 13 14 15 16 17 18 19 20 21 22 23 24 25 26 27 28 29 30 31 32 33 34 35 36 37 38 39 40 41 42 43 44 45 46 47 48 49 50
000
ASUS41 KCLE 221310
RWRCLE
OHIO REGIONAL WEATHER ROUNDUP
NATIONAL WEATHER SERVICE WILMINGTON, OH
900 AM EDT WED OCT 22 2014

NOTE: "FAIR" INDICATES FEW OR NO CLOUDS BELOW 12,000 FEET WITH NO
SIGNIFICANT WEATHER AND/OR OBSTRUCTIONS TO VISIBILITY.

OHZ001>008-015>018-024>027-034-035-043-044-221400-
   NORTHWEST OHIO

CITY           SKY/WX    TMP DP  RH WIND       PRES   REMARKS
DEFIANCE       CLOUDY    45  38  76 N8        30.32R
FINDLAY        CLOUDY    46  39  76 N9        30.28R
TOLEDO EXPRESS CLOUDY    44  38  79 N8        30.31R
TOLEDO METCALF CLOUDY    46  38  73 NW9       30.31R
LIMA           CLOUDY    45  39  79 N8        30.29R
$$

OHZ009>014-019>023-028>033-038-089-221400-
   NORTHEAST OHIO

CITY           SKY/WX    TMP DP  RH WIND       PRES   REMARKS
CLE-HOPKINS    CLOUDY    48  42  80 N9        30.26R
CLE-LAKEFRONT  CLOUDY    49  43  80 N13G22    30.23R
CUY CO. ARPT   CLOUDY    48  45  87 NE9       30.23R
LORAIN-ELYRIA  CLOUDY    47  43  86 N9        30.26R
ASHTABULA      CLOUDY    46  41  82 N10       30.22R
AKRON-CANTON   CLOUDY    46  43  89 N12       30.20R
WOOSTER        CLOUDY    48  44  86 N12       30.22R
MANSFIELD      CLOUDY    44  43  96 NW12      30.23R FOG
YOUNGSTOWN     CLOUDY    45  43  93 N14       30.18R
$$

OHZ042-051>053-060>062-070>072-077>081-221400-
  SOUTHWEST OHIO

CITY           SKY/WX    TMP DP  RH WIND       PRES   REMARKS
CINC-COVINGTON PTSUNNY   44  37  76 N7        30.27R
CINC-LUNKEN    CLOUDY    45  39  79 N5        30.30R
HAMILTON       PTSUNNY   44  39  82 N6        30.29R
DAYTON         CLOUDY    45  40  82 N9        30.30R
WRIGHT-PAT AFB CLOUDY    45  39  81 N8        30.28R
DAYTON GENERAL CLOUDY    44  39  82 N7        30.27R
WILMINGTON     SUNNY     43  38  82 N12       30.25R
$$

OHZ036-037-039>041-045>050-054>059-063>069-073>076-082>088-221400-
  CENTRAL AND SOUTHEAST OHIO

CITY           SKY/WX    TMP DP  RH WIND       PRES   REMARKS
COLUMBUS       CLOUDY    45  41  86 N12       30.23R
OSU AIRPORT    CLOUDY    44  40  85 N13       30.24R
BOLTON FIELD   PTSUNNY   45  43  93 N10       30.25R
RICKENBACK AFB CLOUDY    44  40  87 N12       30.23S
NEWARK         CLOUDY    46  42  86 NW9       30.21R
MARION         CLOUDY    44  41  89 N8        30.26R
LANCASTER      CLOUDY    46  42  86 NW9       30.23R
ZANESVILLE     CLOUDY    47  43  86 NW9       30.19S
NEW PHILLY     CLOUDY    48  44  86 N10       30.20R
$$



USA.gov is the U.S. government's official web portal to all federal, state and local government web resources and services.